Location: Unspecified
(0.0000°N, 0.0000°E)
Time: 13:29:55
(UTC+00:00)

Vanguard 1 - All Passes

Search period start: 21 February 2019 00:00
Search period end: 03 March 2019 00:00
Orbit: 650 x 3833 km, 34.2° (Epoch: 20 February)

Date Brightness Start Highest point End Pass type
(mag) Time Alt. Az. Time Alt. Az. Time Alt. Az.
21 Feb - 00:20:35 10° WSW 00:29:07 15° SSW 00:35:47 10° S visible
21 Feb - 07:39:06 10° SW 07:43:26 56° SE 07:48:29 10° ENE daylight
21 Feb - 10:00:41 10° WNW 10:04:25 18° NNW 10:09:21 10° NNE daylight
21 Feb - 14:51:18 10° N 14:59:42 16° NNE 15:10:08 10° NE daylight
21 Feb - 17:11:17 10° NNW 17:29:36 41° NE 17:50:33 10° E daylight
21 Feb - 19:34:29 10° NW 19:57:56 89° NE 20:18:01 10° SE visible
21 Feb - 22:04:14 10° W 22:24:43 40° SW 22:39:07 10° SSE visible
22 Feb - 00:49:02 10° SW 00:51:28 10° SSW 00:53:43 10° SSW visible
22 Feb - 08:00:00 10° WSW 08:04:22 74° NW 08:09:43 10° NE daylight
22 Feb - 10:23:56 10° NW 10:26:11 12° NNW 10:28:49 10° N daylight
22 Feb - 15:11:53 10° NNW 15:22:38 20° NNE 15:36:24 10° ENE daylight
22 Feb - 17:32:06 10° NW 17:51:39 51° NE 18:13:30 10° ESE daylight
22 Feb - 19:56:09 10° WNW 20:19:37 77° SW 20:39:13 10° SE visible
22 Feb - 22:28:12 10° W 22:46:29 31° SW 22:59:35 10° SSE visible
23 Feb - 06:01:57 10° SSW 06:05:16 18° SSE 06:08:18 10° ESE daylight
23 Feb - 08:21:19 10° WSW 08:25:26 38° NNW 08:30:32 10° NE daylight
23 Feb - 15:32:24 10° NNW 15:45:14 25° NNE 16:01:58 10° E daylight
23 Feb - 17:53:01 10° NW 18:13:31 63° NE 18:35:54 10° ESE visible
23 Feb - 20:18:10 10° WNW 20:41:17 63° SW 21:00:13 10° SE visible
23 Feb - 22:53:02 10° W 23:08:31 24° SSW 23:19:55 10° SSE visible
24 Feb - 06:22:03 10° SSW 06:26:26 32° SE 06:30:26 10° E daylight
24 Feb - 08:43:11 10° W 08:46:40 21° NNW 08:50:53 10° NNE daylight
24 Feb - 15:52:55 10° NNW 16:07:30 32° NE 16:26:39 10° E daylight
24 Feb - 18:14:06 10° NW 18:35:17 76° NE 18:57:50 10° ESE visible
24 Feb - 20:40:39 10° WNW 21:03:01 51° SW 21:21:03 10° SE visible
24 Feb - 23:18:49 10° WSW 23:30:53 18° SSW 23:40:08 10° S visible
25 Feb - 06:42:42 10° SW 06:47:27 65° SE 06:51:55 10° ENE daylight
25 Feb - 09:06:06 10° NW 09:08:07 12° NNW 09:10:23 10° N daylight
25 Feb - 13:56:11 10° N 14:01:29 13° NNE 14:07:48 10° NE daylight
25 Feb - 16:13:30 10° NNW 16:29:29 40° NE 16:50:31 10° E daylight
25 Feb - 18:35:22 10° NW 18:57:00 90° SW 19:19:26 10° SE visible
25 Feb - 21:03:42 10° W 21:24:54 41° SW 21:41:47 10° SSE visible
25 Feb - 23:45:29 10° SW 23:53:34 14° SSW 00:00:11 10° S visible
26 Feb - 04:44:26 10° S 04:47:37 14° SSE 04:50:18 10° ESE visible
26 Feb - 07:03:47 10° WSW 07:08:24 62° NW 07:12:56 10° NE daylight
26 Feb - 14:15:46 10° N 14:24:03 17° NNE 14:34:51 10° ENE daylight
26 Feb - 16:34:10 10° NW 16:51:15 51° NE 17:13:40 10° ESE daylight
26 Feb - 18:56:54 10° WNW 19:18:45 76° SW 19:40:45 10° SE visible
26 Feb - 21:27:28 10° W 21:46:59 33° SSW 22:02:26 10° SSE visible
27 Feb - 00:13:07 10° SSW 00:16:32 11° SSW 00:19:38 10° S visible
27 Feb - 05:04:16 10° SSW 05:09:06 23° SSE 05:12:52 10° E visible
27 Feb - 07:25:21 10° W 07:29:23 31° NW 07:33:30 10° NNE daylight
27 Feb - 14:35:47 10° NNW 14:46:18 23° NE 15:00:46 10° ENE daylight
27 Feb - 16:54:57 10° NW 17:12:54 63° NE 17:36:13 10° ESE daylight
27 Feb - 19:18:47 10° WNW 19:40:33 63° SW 20:01:53 10° SE visible
27 Feb - 21:52:02 10° W 22:09:23 26° SSW 22:23:05 10° SSE visible
28 Feb - 05:24:46 10° SW 05:30:23 41° SSE 05:34:37 10° ENE visible
28 Feb - 07:47:38 10° WNW 07:50:29 16° NNW 07:53:28 10° N daylight
28 Feb - 14:56:01 10° NNW 15:08:12 30° NE 15:25:43 10° E daylight
28 Feb - 17:15:54 10° NW 17:34:31 77° NE 17:58:18 10° ESE daylight
28 Feb - 19:41:06 10° WNW 20:02:31 51° SW 20:22:52 10° SE visible
28 Feb - 22:17:27 10° WSW 22:32:08 20° SSW 22:43:46 10° SSE visible
01 Mar - 03:25:24 10° SSW 03:29:29 14° SSE 03:32:45 10° SE visible
01 Mar - 05:45:40 10° SW 05:51:28 77° SE 05:55:52 10° ENE visible
01 Mar - 15:16:23 10° NNW 15:29:52 39° NE 15:49:46 10° E daylight
01 Mar - 17:37:04 10° NW 17:56:10 89° SW 18:20:01 10° SE daylight
01 Mar - 20:03:58 10° W 20:24:39 41° SW 20:43:46 10° SSE visible
01 Mar - 22:43:30 10° SW 22:55:11 17° SSW 23:04:36 10° SSE visible
02 Mar - 03:45:22 10° SSW 03:51:18 21° SSE 03:55:32 10° ESE visible
02 Mar - 06:06:59 10° WSW 06:12:25 54° NW 06:16:42 10° NE daylight
02 Mar - 13:20:27 10° N 13:26:01 14° NNE 13:32:57 10° ENE daylight
02 Mar - 15:36:53 10° NNW 15:51:21 50° NE 16:13:04 10° ESE daylight
02 Mar - 17:58:29 10° WNW 18:17:55 74° SW 18:41:28 10° SE visible
02 Mar - 20:27:29 10° W 20:47:04 33° SSW 21:04:38 10° SSE visible
02 Mar - 23:09:39 10° SW 23:18:30 14° SSW 23:25:47 10° SSE visible
